TimeAKDT,TemperatureF,Dew PointF,Humidity,Sea Level PressureIn,VisibilityMPH,Wind Direction,Wind SpeedMPH,Gust SpeedMPH,PrecipitationIn,Events,Conditions,WindDirDegrees,DateUTC
12:53 AM,69.1,57.0,65,29.98,4.0,WSW,5.8,-,N/A,,Smoke,240,2013-06-29 08:53:00
1:53 AM,68.0,55.9,65,29.98,4.0,Calm,Calm,-,N/A,,Smoke,0,2013-06-29 09:53:00
2:53 AM,64.9,57.0,75,29.99,5.0,SE,3.5,-,N/A,,Smoke,130,2013-06-29 10:53:00
3:53 AM,63.0,57.0,81,29.99,5.0,West,3.5,-,N/A,,Smoke,260,2013-06-29 11:53:00
4:53 AM,62.1,55.0,78,29.99,5.0,NE,3.5,-,N/A,,Smoke,40,2013-06-29 12:53:00
5:53 AM,63.0,57.0,81,29.99,4.0,North,3.5,-,N/A,,Smoke,360,2013-06-29 13:53:00
6:53 AM,63.0,57.9,84,30.00,6.0,Calm,Calm,-,N/A,,Smoke,0,2013-06-29 14:53:00
7:53 AM,64.4,57.2,77,29.99,5.0,Calm,Calm,-,N/A,,Smoke,0,2013-06-29 15:53:00
8:53 AM,66.2,57.2,73,29.99,5.0,South,3.5,-,N/A,,Smoke,180,2013-06-29 16:53:00
9:53 AM,66.2,57.2,73,29.99,5.0,Calm,Calm,-,N/A,,Smoke,0,2013-06-29 17:53:00
10:25 AM,68.0,57.2,68,29.98,5.0,SSE,3.5,-,N/A,,Smoke,150,2013-06-29 18:25:00
10:53 AM,69.8,57.2,64,29.99,3.0,South,3.5,-,N/A,,Smoke,190,2013-06-29 18:53:00
11:27 AM,69.8,55.4,60,29.98,2.5,SSE,4.6,-,N/A,,Overcast,150,2013-06-29 19:27:00
11:53 AM,71.6,55.4,57,29.99,2.5,SSW,3.5,-,N/A,,Smoke,200,2013-06-29 19:53:00
12:53 PM,71.6,55.4,57,29.98,1.8,SSW,6.9,-,N/A,,Smoke,200,2013-06-29 20:53:00
1:53 PM,71.6,55.4,57,29.97,1.0,SSW,4.6,-,N/A,,Smoke,210,2013-06-29 21:53:00
2:26 PM,72.0,55.0,55,29.96,0.8,Calm,Calm,-,N/A,,Smoke,0,2013-06-29 22:26:00
2:32 PM,71.6,55.4,57,29.96,1.0,SSE,4.6,-,N/A,,Smoke,160,2013-06-29 22:32:00
2:53 PM,73.4,55.4,53,29.97,1.5,Variable,3.5,-,N/A,,Smoke,0,2013-06-29 22:53:00
3:53 PM,73.4,53.6,50,29.95,1.8,Calm,Calm,-,N/A,,Smoke,0,2013-06-29 23:53:00
4:53 PM,78.8,55.4,44,29.94,2.0,Calm,Calm,-,N/A,,Smoke,0,2013-06-30 00:53:00
5:53 PM,77.0,53.6,44,29.91,2.5,Calm,Calm,-,N/A,,Smoke,0,2013-06-30 01:53:00
6:49 PM,77.0,53.6,44,29.89,3.0,SE,4.6,-,N/A,,Smoke,130,2013-06-30 02:49:00
6:53 PM,77.0,53.6,44,29.90,3.0,ESE,6.9,-,N/A,,Smoke,120,2013-06-30 02:53:00
7:53 PM,77.0,55.4,47,29.89,3.0,East,4.6,-,N/A,,Smoke,100,2013-06-30 03:53:00
8:53 PM,75.2,55.4,50,29.88,4.0,East,3.5,-,N/A,,Smoke,100,2013-06-30 04:53:00
9:53 PM,75.2,55.4,50,29.88,4.0,East,3.5,-,N/A,,Smoke,90,2013-06-30 05:53:00
10:50 PM,71.6,57.2,60,29.87,4.0,East,3.5,-,N/A,,Smoke,100,2013-06-30 06:50:00
10:53 PM,71.6,57.2,60,29.88,4.0,East,3.5,-,N/A,,Smoke,90,2013-06-30 06:53:00
11:53 PM,69.1,55.0,61,29.88,4.0,NNE,5.8,-,N/A,,Smoke,20,2013-06-30 07:53:00